Location: Newark
(45.5000°N, 11.4167°E)
Time: 15:54:24
(UTC+00:00)

Altair - Pass Details

Date: 26 August 2019
Orbit: 1501 x 1683 km, 47.2° (Epoch: 17 October)

Event Time Altitude Azimuth Distance (km) Brightness Sun altitude
Exits shadow 03:40:46 - 265° (W) 4,099 9.1 -8.6°
Reaches altitude 10° 03:41:34 10° 265° (W) 3,844 9.0 -8.4°
Maximum altitude 03:51:23 82° 354° (N) 1,590 7.7 -6.9°
Drops below altitude 10° 04:00:49 10° 83° (E) 3,704 11.1 -5.3°
Sets 04:03:49 0° 84° (E) 4,669 12.0 -4.8°
